Weather History for MMCZ - January, 2012

Change the Weather History Date:

Monday, January 30, 2012

  Actual Average Record
Temperature  
Mean Temperature 72 °F -  
Max Temperature 77 °F 82 °F 86 °F (1999)
Min Temperature 66 °F 69 °F 53 °F (2011)
Cooling Degree Days 6    
Growing Degree Days 22 (Base 50)    
Moisture  
Dew Point 64 °F    
Average Humidity 76    
Maximum Humidity 88    
Minimum Humidity 61    
Precipitation  
Precipitation 0.15 in - - ()
Sea Level Pressure  
Sea Level Pressure 30.11 in    
Wind  
Wind Speed 7 mph ()    
Max Wind Speed 17 mph    
Max Gust Speed 21 mph    
Visibility 7.2 miles    
Events Rain    
Averages and records for this station are not official NWS values.
T = Trace of Precipitation, MM = Missing Value Source: Averaged Metar Reports

Daily Weather History Graph

Daily Weather History Graph

Search for Another Location

Airport or City:

Trip Planner

Search our weather history database for the weather conditions in past years. The results will help you decide how hot, cold, wet, or windy it might be!

Date:

Astronomy

Jan. 30, 2012 Rise Set
Actual Time 6:24 AM CST 5:37 PM CST
Civil Twilight 6:01 AM CST 6:00 PM CST
Nautical Twilight 5:34 AM CST 6:27 PM CST
Astronomical Twilight 5:08 AM CST 6:53 PM CST
Moon 10:52 AM CST (1/30) No Moon Set
Length of Visible Light 11h 59m
Length of Day
11h 12m
Waxing Crescent, 46% of the Moon is Illuminated
Jan 30
Waxing Crescent
Jan 30
First Quarter
Feb 7
Full
Feb 14
Last Quarter
Feb 21
New

Hourly Weather History & Observations

Time (CST) Temp. Dew Point Humidity Pressure Visibility Wind Dir Wind Speed Gust Speed Precip Events Conditions
12:41 AM 69.8 °F 64.4 °F 83% 30.12 in 7.0 mi NNE 6.9 mph - N/A   Mostly Cloudy
1:43 AM 71.6 °F 64.4 °F 78% 30.10 in 7.0 mi ENE 9.2 mph - N/A   Scattered Clouds
2:42 AM 69.8 °F 64.4 °F 83% 30.12 in 7.0 mi NE 6.9 mph - N/A   Scattered Clouds
3:42 AM 69.8 °F 64.4 °F 83% 30.08 in 7.0 mi NE 5.8 mph - N/A   Scattered Clouds
4:41 AM 69.8 °F 64.4 °F 83% 30.08 in 7.0 mi East 5.8 mph - N/A   Partly Cloudy
5:46 AM 68.0 °F 64.4 °F 88% 30.08 in 7.0 mi East 5.8 mph - N/A   Partly Cloudy
6:43 AM 69.8 °F 64.4 °F 83% 30.12 in 7.0 mi ENE 6.9 mph - N/A   Scattered Clouds
7:45 AM 71.6 °F 64.4 °F 78% 30.13 in 7.0 mi ENE 9.2 mph - N/A   Scattered Clouds
8:46 AM 66.2 °F 60.8 °F 83% 30.18 in 6.0 mi East 11.5 mph - N/A Rain Light Rain
9:47 AM 71.6 °F 66.2 °F 83% 30.15 in 7.0 mi East 8.1 mph - N/A   Mostly Cloudy
10:50 AM 75.2 °F 64.4 °F 69% 30.14 in 7.0 mi East 17.3 mph - N/A   Mostly Cloudy
11:47 AM 77.0 °F 62.6 °F 61% 30.08 in 7.0 mi ENE 9.2 mph 20.7 mph N/A   Mostly Cloudy
12:42 PM 77.0 °F 62.6 °F 61% 30.11 in 8.0 mi East 17.3 mph - N/A   Mostly Cloudy
1:41 PM 77.0 °F 66.2 °F 69% 30.09 in 8.0 mi ENE 15.0 mph - N/A   Mostly Cloudy
2:42 PM 77.0 °F 62.6 °F 61% 30.10 in 8.0 mi ENE 13.8 mph - N/A   Mostly Cloudy
3:44 PM 75.2 °F 62.6 °F 65% 30.07 in 8.0 mi ENE 11.5 mph - N/A   Mostly Cloudy
4:40 PM 75.2 °F 62.6 °F 65% 30.07 in 8.0 mi ENE 8.1 mph - N/A   Mostly Cloudy
5:46 PM 71.6 °F 62.6 °F 73% 30.05 in 7.0 mi East 4.6 mph - N/A   Mostly Cloudy
6:44 PM 69.8 °F 62.6 °F 78% 30.09 in 7.0 mi East 4.6 mph - N/A   Mostly Cloudy
7:43 PM 71.6 °F 62.6 °F 73% 30.11 in 7.0 mi East 4.6 mph - N/A   Scattered Clouds
8:46 PM 68.0 °F 62.6 °F 83% 30.16 in 7.0 mi ESE 3.5 mph - N/A   Scattered Clouds
9:46 PM 69.8 °F 64.4 °F 83% 30.13 in 7.0 mi East 6.9 mph - N/A   Scattered Clouds
10:42 PM 68.0 °F 62.6 °F 83% 30.14 in 7.0 mi ESE 5.8 mph - N/A   Mostly Cloudy
11:43 PM 68.0 °F 62.6 °F 83% 30.10 in 7.0 mi East 5.8 mph - N/A   Scattered Clouds